Regional Weather Roundup
Issued by NWS

Home | Current Version | Previous Version | Text Only | Print | Product List | Glossary Off
Versions: 1 2 3 4 5 6 7 8 9 10 11 12 13 14 15 16 17 18 19 20 21 22 23 24 25 26 27 28 29 30 31 32 33 34 35 36 37 38 39 40 41 42 43 44 45 46 47 48 49 50

001
ASUS43 KLMK 242010
RWRKY
KENTUCKY REGIONAL WEATHER ROUNDUP
NATIONAL WEATHER SERVICE LOUISVILLE KY
400 PM EDT WED MAY 24 2017

NOTE "FAIR" INDICATES FEW OR NO CLOUDS BELOW 12,000 FEET
WITH NO SIGNIFICANT WEATHER AND/OR OBSTRUCTIONS TO VISIBILITY.

KYZ001>023-026-027-061>063-070>075-242100-
WESTERN AND SOUTH CENTRAL KENTUCKY

CITY           SKY/WX    TMP DP  RH WIND       PRES   REMARKS
PADUCAH        CLOUDY    67  49  52 NW6       29.51F
HENDERSON      LGT RAIN  59  55  87 NW14      29.50S
OWENSBORO      LGT RAIN  59  57  93 NW15      29.47S FOG
HOPKINSVILLE   CLOUDY    61  57  88 NW17      29.50S
BOWLING GREEN  LGT RAIN  60  59  96 NW12      29.43S
GLASGOW        HVY RAIN  60  60 100 W9        29.39S
$$

KYZ024-025-028>034-038-045-046-053-242100-
NORTH CENTRAL KENTUCKY

CITY           SKY/WX    TMP DP  RH WIND       PRES   REMARKS
LOUISVILLE/SDF CLOUDY    64  58  80 NW13      29.39F
LOUISVILLE/LOU CLOUDY    66  60  81 NW13      29.39F
FORT KNOX      LGT RAIN  59  58  97 NW13G18   29.38F
$$

KYZ035>037-039>044-047>052-055>060-089>105-242100-
NORTHEAST KENTUCKY

CITY           SKY/WX    TMP DP  RH WIND       PRES   REMARKS
LEXINGTON      CLOUDY    68  59  73 SE12      29.38F
COVINGTON      TSTM      65  63  93 N8        29.39F FOG
FRANKFORT      CLOUDY    70  57  63 SE9       29.36F
$$

KYZ054-064>069-076>088-106>120-242100-
SOUTHEAST KENTUCKY

CITY           SKY/WX    TMP DP  RH WIND       PRES   REMARKS
JACKSON        CLOUDY    69  63  81 VRB3      29.43F
LONDON         MOSUNNY   70  56  61 SE9G21    29.39F
SOMERSET       HVY RAIN  59  55  88 W10G28    29.42R
MIDDLESBORO    PTSUNNY   69  57  67 S7        29.43F
MONTICELLO     LGT RAIN  63  60  90 W16G24    29.42R
$$





USA.gov is the U.S. government's official web portal to all federal, state and local government web resources and services.